When you browse on this site, cookies collect data to enhance your experience and personalize the content and advertising you see.
Visit our Privacy Policy to learn more. By continuing to use the site, you agree to this use of cookies and data.
  • In Hungary
  • List of Countries
  • For 7 days
  • Water Temperature
  • Weather Map
  • News
  • Weather Widgets
  • user-avatar
    Login

    Hourly Weather Homuty

    Today, 18 October, Friday

    Time Temperature Precipitation Wind Pressure Humidity
    00:00 +16°C° 0 mm 0 mps 761 mmHg 68%
    01:00 +16°C° 0 mm 0 mps 761 mmHg 69%
    02:00 +15°C° 0 mm 0 mps 761 mmHg 70%
    03:00 +15°C° 0 mm 0 mps 761 mmHg 71%
    04:00 +15°C° 0 mm 0 mps 761 mmHg 72%
    05:00 +15°C° 0 mm 0 mps 761 mmHg 73%
    06:00 +14°C° 0 mm 0 mps 761 mmHg 73%
    07:00 +16°C° 0 mm 0 mps 761 mmHg 68%
    08:00 +17°C° 0 mm 0 mps 761 mmHg 63%
    09:00 +18°C° 0 mm 0 mps 761 mmHg 58%
    10:00 +20°C° 0 mm 0 mps 761 mmHg 52%
    11:00 +22°C° 0 mm 0 mps 761 mmHg 47%
    12:00 +24°C° 0 mm 0 mps 761 mmHg 41%
    13:00 +24°C° 0 mm 0 mps 761 mmHg 40%
    14:00 +26°C° 0 mm 1 mps 761 mmHg 38%
    15:00 +27°C° 0 mm 1 mps 760 mmHg 37%
    16:00 +25°C° 0 mm 1 mps 760 mmHg 41%
    17:00 +24°C° 0 mm 1 mps 760 mmHg 45%
    18:00 +21°C° 0 mm 0 mps 760 mmHg 49%
    19:00 +22°C° 0 mm 1 mps 760 mmHg 52%
    20:00 +21°C° 0 mm 1 mps 760 mmHg 55%
    21:00 +20°C° 0 mm 1 mps 760 mmHg 58%
    22:00 +19°C° 0 mm 1 mps 761 mmHg 60%
    23:00 +19°C° 0 mm 1 mps 761 mmHg 62%

    Tomorrow, 19 October, Saturday

    Time Temperature Precipitation Wind Pressure Humidity
    00:00 +18°C° 0 mm 1 mps 761 mmHg 65%
    01:00 +18°C° 0 mm 1 mps 761 mmHg 66%
    02:00 +18°C° 0 mm 1 mps 761 mmHg 67%
    03:00 +16°C° 0 mm 1 mps 761 mmHg 68%
    04:00 +16°C° 0 mm 1 mps 761 mmHg 70%
    05:00 +16°C° 0 mm 1 mps 761 mmHg 71%
    06:00 +15°C° 0 mm 1 mps 762 mmHg 72%
    07:00 +16°C° 0 mm 0 mps 762 mmHg 68%
    08:00 +17°C° 0 mm 0 mps 762 mmHg 63%
    09:00 +18°C° 0 mm 0 mps 762 mmHg 59%
    10:00 +20°C° 0 mm 0 mps 762 mmHg 54%
    11:00 +22°C° 0 mm 0 mps 762 mmHg 49%
    12:00 +23°C° 0 mm 0 mps 762 mmHg 44%
    13:00 +24°C° 0 mm 0 mps 762 mmHg 43%
    14:00 +26°C° 0 mm 1 mps 762 mmHg 41%
    15:00 +26°C° 0 mm 1 mps 762 mmHg 40%
    16:00 +25°C° 0 mm 1 mps 762 mmHg 44%
    17:00 +24°C° 0 mm 1 mps 762 mmHg 48%
    18:00 +22°C° 0 mm 1 mps 762 mmHg 51%
    19:00 +21°C° 0 mm 1 mps 762 mmHg 53%
    20:00 +21°C° 0 mm 1 mps 762 mmHg 55%
    21:00 +20°C° 0 mm 1 mps 762 mmHg 57%
    22:00 +20°C° 0 mm 1 mps 762 mmHg 59%
    23:00 +19°C° 0 mm 1 mps 763 mmHg 60%

    Day after tomorrow, 20 October, Sunday

    Time Temperature Precipitation Wind Pressure Humidity
    00:00 +18°C° 0 mm 1 mps 763 mmHg 62%
    01:00 +18°C° 0 mm 1 mps 763 mmHg 63%
    02:00 +18°C° 0 mm 1 mps 763 mmHg 65%
    03:00 +16°C° 0 mm 1 mps 763 mmHg 67%
    04:00 +16°C° 0 mm 1 mps 763 mmHg 68%
    05:00 +16°C° 0 mm 1 mps 763 mmHg 69%
    06:00 +15°C° 0 mm 1 mps 763 mmHg 70%
    07:00 +16°C° 0 mm 1 mps 763 mmHg 66%
    08:00 +19°C° 0 mm 1 mps 764 mmHg 62%
    09:00 +20°C° 0 mm 1 mps 764 mmHg 57%
    10:00 +21°C° 0 mm 1 mps 764 mmHg 53%
    11:00 +23°C° 0 mm 2 mps 764 mmHg 48%
    12:00 +25°C° 0 mm 2 mps 764 mmHg 44%
    13:00 +25°C° 0 mm 2 mps 763 mmHg 42%
    14:00 +26°C° 0 mm 3 mps 763 mmHg 40%
    15:00 +27°C° 0 mm 3 mps 763 mmHg 39%
    16:00 +25°C° 0 mm 3 mps 763 mmHg 43%
    17:00 +24°C° 0 mm 3 mps 763 mmHg 47%
    18:00 +22°C° 0 mm 3 mps 763 mmHg 52%
    19:00 +21°C° 0 mm 4 mps 763 mmHg 54%
    20:00 +20°C° 0 mm 4 mps 763 mmHg 55%
    21:00 +19°C° 0 mm 4 mps 763 mmHg 57%
    22:00 +19°C° 0 mm 4 mps 763 mmHg 59%
    23:00 +18°C° 0 mm 3 mps 763 mmHg 60%

    21 October, Monday

    Time Temperature Precipitation Wind Pressure Humidity
    00:00 +17°C° 0 mm 3 mps 763 mmHg 62%
    01:00 +17°C° 0 mm 3 mps 763 mmHg 63%
    02:00 +16°C° 0 mm 3 mps 763 mmHg 64%
    03:00 +16°C° 0 mm 2 mps 763 mmHg 65%
    04:00 +15°C° 0 mm 2 mps 763 mmHg 66%
    05:00 +15°C° 0 mm 2 mps 763 mmHg 67%
    06:00 +14°C° 0 mm 2 mps 764 mmHg 68%
    07:00 +14°C° 0 mm 3 mps 764 mmHg 64%
    08:00 +16°C° 0 mm 3 mps 764 mmHg 60%
    09:00 +17°C° 0 mm 4 mps 764 mmHg 56%
    10:00 +19°C° 0 mm 4 mps 764 mmHg 51%
    11:00 +20°C° 0 mm 4 mps 764 mmHg 47%
    12:00 +22°C° 0 mm 4 mps 764 mmHg 42%
    13:00 +23°C° 0 mm 4 mps 764 mmHg 39%
    14:00 +23°C° 0 mm 4 mps 763 mmHg 37%
    15:00 +25°C° 0 mm 5 mps 763 mmHg 34%
    16:00 +22°C° 0 mm 4 mps 763 mmHg 37%
    17:00 +21°C° 0 mm 4 mps 763 mmHg 41%
    18:00 +20°C° 0 mm 4 mps 763 mmHg 44%
    19:00 +19°C° 0 mm 4 mps 763 mmHg 46%
    20:00 +18°C° 0 mm 4 mps 763 mmHg 48%
    21:00 +17°C° 0 mm 4 mps 763 mmHg 50%
    22:00 +17°C° 0 mm 4 mps 763 mmHg 54%
    23:00 +15°C° 0 mm 4 mps 763 mmHg 58%

    22 October, Tuesday

    Time Temperature Precipitation Wind Pressure Humidity
    00:00 +14°C° 0 mm 3 mps 763 mmHg 62%
    01:00 +14°C° 0 mm 3 mps 763 mmHg 65%
    02:00 +13°C° 0 mm 3 mps 763 mmHg 67%
    03:00 +13°C° 0 mm 3 mps 763 mmHg 70%
    04:00 +12°C° 0 mm 3 mps 763 mmHg 72%
    05:00 +13°C° 0 mm 2 mps 763 mmHg 73%
    06:00 +13°C° 0 mm 2 mps 763 mmHg 75%
    07:00 +14°C° 0 mm 2 mps 763 mmHg 72%
    08:00 +15°C° 0 mm 2 mps 763 mmHg 68%
    09:00 +16°C° 0 mm 2 mps 763 mmHg 64%
    10:00 +17°C° 0 mm 2 mps 763 mmHg 60%
    11:00 +19°C° 0 mm 2 mps 763 mmHg 55%
    12:00 +21°C° 0 mm 2 mps 763 mmHg 50%
    13:00 +21°C° 0 mm 2 mps 762 mmHg 49%
    14:00 +23°C° 0 mm 2 mps 762 mmHg 47%
    15:00 +24°C° 0 mm 2 mps 762 mmHg 45%
    16:00 +22°C° 0 mm 1 mps 762 mmHg 49%
    17:00 +21°C° 0 mm 1 mps 762 mmHg 53%
    18:00 +20°C° 0 mm 1 mps 762 mmHg 57%
    19:00 +19°C° 0 mm 1 mps 762 mmHg 58%
    20:00 +18°C° 0 mm 1 mps 762 mmHg 59%
    21:00 +16°C° 0 mm 1 mps 762 mmHg 60%
    22:00 +16°C° 0 mm 1 mps 762 mmHg 61%
    23:00 +15°C° 0 mm 1 mps 762 mmHg 62%

    23 October, Wednesday

    Time Temperature Precipitation Wind Pressure Humidity
    00:00 +15°C° 0 mm 1 mps 762 mmHg 63%
    01:00 +14°C° 0 mm 1 mps 763 mmHg 65%
    02:00 +14°C° 0 mm 1 mps 763 mmHg 66%
    03:00 +14°C° 0 mm 1 mps 763 mmHg 67%
    04:00 +13°C° 0 mm 1 mps 763 mmHg 68%
    05:00 +13°C° 0 mm 1 mps 763 mmHg 69%
    06:00 +11°C° 0 mm 0 mps 763 mmHg 70%
    07:00 +13°C° 0 mm 0 mps 763 mmHg 65%
    08:00 +14°C° 0 mm 0 mps 763 mmHg 61%
    09:00 +15°C° 0 mm 0 mps 764 mmHg 56%
    10:00 +18°C° 0 mm 1 mps 764 mmHg 51%
    11:00 +20°C° 0 mm 1 mps 764 mmHg 46%
    12:00 +22°C° 0 mm 1 mps 764 mmHg 40%
    13:00 +22°C° 0 mm 1 mps 764 mmHg 38%
    14:00 +23°C° 0 mm 1 mps 763 mmHg 36%
    15:00 +23°C° 0 mm 1 mps 763 mmHg 33%
    16:00 +22°C° 0 mm 1 mps 763 mmHg 36%
    17:00 +20°C° 0 mm 1 mps 763 mmHg 40%
    18:00 +19°C° 0 mm 1 mps 763 mmHg 43%
    19:00 +18°C° 0 mm 1 mps 763 mmHg 45%
    20:00 +16°C° 0 mm 1 mps 764 mmHg 47%
    21:00 +16°C° 0 mm 2 mps 764 mmHg 48%
    22:00 +15°C° 0 mm 2 mps 764 mmHg 51%
    23:00 +15°C° 0 mm 1 mps 764 mmHg 53%
    Show more